Location: Eymir
(36.7333°N, 29.7833°E)
Time: 17:12:03
(UTC+00:00)

SMAP - Pass Details

Date: 14 January 2026
Orbit: 682 x 683 km, 98.1° (Epoch: 17 February)

Event Time Altitude Azimuth Distance (km) Brightness Sun altitude
Rises 04:26:32 0° 10° (N) 3,051 6.3 -9.4°
Reaches altitude 10° 04:28:47 10° 8° (N) 2,132 5.5 -9.0°
Maximum altitude 04:33:26 72° 285° (WNW) 719 3.0 -8.1°
Drops below altitude 10° 04:38:02 10° 201° (SSW) 2,116 5.6 -7.2°
Sets 04:40:16 0° 199° (SSW) 3,027 6.4 -6.8°
